Location: �bnet
(46.9957°N, 8.4908°E)
Time: 08:17:23
(UTC+00:00)

Cosmos 2242 Rocket - Pass Details

Date: 11 May 2021
Orbit: 619 x 650 km, 82.5° (Epoch: 13 June)

Event Time Altitude Azimuth Distance (km) Brightness Sun altitude
Exits shadow 23:09:01 82° 329° (NNW) 640 3.5 -24.8°
Drops below altitude 10° 23:13:21 10° 8° (N) 2,023 7.2 -24.8°
Sets 23:15:37 0° 9° (N) 2,941 8.3 -24.9°
